This is the latest recevied weather packets stored in our database for station/object DM4XI-13. If no packets are shown the sender has not sent any weather packets the latest 10 day(s).
| Time | Temp. | Humidity | Pressure | Rain* | Wind** | Luminosity | Snow |
|---|---|---|---|---|---|---|---|
| 1778144060 | 11.11° C | 85% | 1010.4 hPa | 0 mm | 1.79 m/s, 211° | 140 W/m² | - |
| 1778143999 | 11.11° C | 85% | 1010.3 hPa | 0 mm | 1.34 m/s, 212° | 155 W/m² | - |
| 1778143938 | 11.11° C | 85% | 1010.3 hPa | 0 mm | 2.68 m/s, 157° | 167 W/m² | - |
| 1778143877 | 11.11° C | 85% | 1010.4 hPa | 0 mm | 2.24 m/s, 172° | 159 W/m² | - |
| 1778143816 | 11.11° C | 85% | 1010.3 hPa | 0 mm | 1.34 m/s, 199° | 116 W/m² | - |
| 1778143754 | 11.11° C | 85% | 1010.3 hPa | 0 mm | 1.79 m/s, 184° | 94 W/m² | - |
| 1778143694 | 11.11° C | 84% | 1010.2 hPa | 0 mm | 1.79 m/s, 209° | 93 W/m² | - |
| 1778143633 | 11.11° C | 85% | 1010.3 hPa | 0 mm | 2.24 m/s, 196° | 97 W/m² | - |
| 1778143572 | 11.11° C | 85% | 1010.2 hPa | 0 mm | 1.79 m/s, 196° | 97 W/m² | - |
| 1778143512 | 11.11° C | 85% | 1010.2 hPa | 0 mm | 0.89 m/s, 154° | 110 W/m² | - |
| 1778143451 | 11.11° C | 85% | 1010.2 hPa | 0 mm | 0.89 m/s, 171° | 108 W/m² | - |
| 1778143390 | 11.11° C | 85% | 1010.3 hPa | 0 mm | 0.89 m/s, 198° | 114 W/m² | - |
| 1778143328 | 11.11° C | 84% | 1010.2 hPa | 0 mm | 1.34 m/s, 210° | 138 W/m² | - |
| 1778143268 | 11.11° C | 84% | 1010.4 hPa | 0 mm | 2.24 m/s, 185° | 125 W/m² | - |
| 1778143207 | 11.11° C | 84% | 1010.2 hPa | 0 mm | 1.34 m/s, 174° | 148 W/m² | - |
| 1778143146 | 11.11° C | 84% | 1010.3 hPa | 0 mm | 1.34 m/s, 186° | 139 W/m² | - |
| 1778143085 | 11.11° C | 85% | 1010.3 hPa | 0 mm | 0.89 m/s, 209° | 150 W/m² | - |
| 1778143024 | 11.11° C | 84% | 1010.2 hPa | 0 mm | 0.89 m/s, 215° | 165 W/m² | - |
| 1778142963 | 11.11° C | 86% | 1010.3 hPa | 0 mm | 1.34 m/s, 195° | 158 W/m² | - |
| 1778142901 | 11.11° C | 86% | 1010.3 hPa | 0 mm | 0.89 m/s, 180° | 162 W/m² | - |
| 1778142841 | 11.11° C | 85% | 1010.2 hPa | 0 mm | 1.34 m/s, 194° | 167 W/m² | - |
| 1778142779 | 11.11° C | 86% | 1010.2 hPa | 0 mm | 0.45 m/s, 198° | 160 W/m² | - |
| 1778142718 | 11.11° C | 86% | 1010.2 hPa | 0 mm | 0.45 m/s, 177° | 159 W/m² | - |
| 1778142658 | 11.11° C | 85% | 1010.3 hPa | 0 mm | 1.34 m/s, 177° | 173 W/m² | - |
| 1778142597 | 11.11° C | 85% | 1010.3 hPa | 0 mm | 1.79 m/s, 181° | 199 W/m² | - |
* Rain latest hour (hover to see other rain measurements)
** Current wind speed in m/s (hover to see current wind gust speed)